Weather History for Hamilton, OH

Change the Weather History Date:

Thursday, March 28, 2013

  Actual Average (KCVG) Record (KCVG)
Temperature  
Mean Temperature 36 °F 48 °F  
Max Temperature 52 °F 58 °F 85 °F (1910)
Min Temperature 21 °F 38 °F 18 °F (1934)
Degree Days  
Heating Degree Days 29 17  
Month to date heating degree days 616  
Since 1 July heating degree days 4443  
Cooling Degree Days 0 0  
Month to date cooling degree days 0  
Year to date cooling degree days 0  
Moisture  
Dew Point 24 °F    
Average Humidity 65    
Maximum Humidity 88    
Minimum Humidity 36    
Precipitation  
Precipitation 0.00 in 0.14 in 1.87 in (2005)
Month to date precipitation 3.54  
Year to date precipitation 9.35  
Snow  
Snow 0.00 in 0.10 in 1.20 in (1899)
Month to date snowfall 2.9  
Since 1 July snowfall 21.5  
Snow Depth -    
Sea Level Pressure  
Sea Level Pressure 30.35 in    
Wind  
Wind Speed 2 mph (WNW)    
Max Wind Speed 9 mph    
Max Gust Speed -    
Visibility 10 miles    
Events      
T = Trace of Precipitation, MM = Missing Value Source: NWS Daily Summary

Daily Weather History Graph

Daily Weather History Graph

Search for Another Location

Airport:

Trip Planner

Search our weather history database for the weather conditions in past years. The results will help you decide how hot, cold, wet, or windy it might be!

Date:

Astronomy

Mar. 28, 2013 Rise Set
Actual Time 7:28 AM EDT 7:58 PM EDT
Civil Twilight 7:01 AM EDT 8:25 PM EDT
Nautical Twilight 6:29 AM EDT 8:57 PM EDT
Astronomical Twilight 5:57 AM EDT 9:29 PM EDT
Moon 9:48 PM EDT (3/28) 7:56 AM EDT (3/28)
Length of Visible Light 13h 23m
Length of Day
12h 29m
Full, 98% of the Moon is Illuminated
Mar 28
Full
Apr 3
Last Quarter
Apr 10
New
Apr 18
First Quarter
Apr 25
Full

Hourly Weather History & Observations

Time (EDT) Temp. Windchill Dew Point Humidity Pressure Visibility Wind Dir Wind Speed Gust Speed Precip Events Conditions
12:53 AM 26.1 °F - 21.0 °F 81% 30.34 in 10.0 mi Calm Calm - N/A   Clear
1:53 AM 25.0 °F - 21.0 °F 85% 30.33 in 10.0 mi Calm Calm - N/A   Clear
2:53 AM 24.1 °F - 21.0 °F 88% 30.33 in 10.0 mi Calm Calm - N/A   Clear
3:53 AM 24.1 °F - 19.9 °F 84% 30.33 in 10.0 mi Calm Calm - N/A   Clear
4:53 AM 24.1 °F - 21.0 °F 88% 30.33 in 10.0 mi Calm Calm - N/A   Clear
5:53 AM 23.0 °F - 19.0 °F 85% 30.34 in 10.0 mi Calm Calm - N/A   Clear
6:53 AM 21.9 °F - 18.0 °F 85% 30.35 in 10.0 mi Calm Calm - N/A   Clear
7:53 AM 25.0 °F - 21.0 °F 85% 30.37 in 10.0 mi Calm Calm - N/A   Clear
8:53 AM 30.9 °F - 25.0 °F 79% 30.38 in 10.0 mi Calm Calm - N/A   Clear
9:53 AM 37.0 °F 33.3 °F 26.1 °F 65% 30.38 in 10.0 mi WSW 4.6 mph - N/A   Clear
10:53 AM 41.0 °F - 23.0 °F 49% 30.39 in 10.0 mi Calm Calm - N/A   Clear
11:53 AM 44.1 °F 40.1 °F 23.0 °F 43% 30.40 in 10.0 mi WNW 6.9 mph - N/A   Clear
12:53 PM 46.0 °F 41.9 °F 25.0 °F 44% 30.38 in 10.0 mi WNW 8.1 mph - N/A   Clear
1:53 PM 46.9 °F - 24.1 °F 41% 30.37 in 10.0 mi Variable 6.9 mph - N/A   Clear
2:53 PM 48.0 °F - 25.0 °F 41% 30.36 in - Variable 5.8 mph - N/A   Clear
3:53 PM 50.0 °F - 26.1 °F 39% 30.34 in 10.0 mi NW 8.1 mph - N/A   Clear
4:53 PM 51.1 °F - 27.0 °F 39% 30.32 in 10.0 mi SW 9.2 mph - N/A   Clear
5:53 PM 50.0 °F - 24.1 °F 36% 30.32 in 10.0 mi NW 3.5 mph - N/A   Clear
6:53 PM 48.9 °F - 25.0 °F 39% 30.32 in 10.0 mi WNW 6.9 mph - N/A   Clear
7:53 PM 46.0 °F 44.8 °F 25.0 °F 44% 30.32 in 10.0 mi WNW 3.5 mph - N/A   Clear
8:53 PM 39.9 °F - 30.9 °F 70% 30.33 in 10.0 mi Calm Calm - N/A   Clear
9:53 PM 34.0 °F - 27.0 °F 75% 30.34 in 10.0 mi Calm Calm - N/A   Clear
10:53 PM 34.0 °F - 28.0 °F 79% 30.34 in 10.0 mi Calm Calm - N/A   Clear
11:53 PM 30.0 °F - 26.1 °F 85% 30.35 in 10.0 mi Calm Calm - N/A   Clear